Time,TemperatureF,DewpointF,PressureIn,WindDirection,WindDirectionDegrees,WindSpeedMPH,WindSpeedGustMPH,Humidity,HourlyPrecipIn,Conditions,Clouds,dailyrainin,SolarRadiationWatts/m^2,SoftwareType,DateUTC
2013-10-17 00:11:00,57.1,53.0,29.80,SSW,202,3.0,-999.0,87,-99.99,,,0.00,0,weatherlink.com 1.10,2013-10-17 04:11:00,
2013-10-17 00:26:00,57.1,53.0,29.80,South,180,4.0,-999.0,87,-99.99,,,0.00,0,weatherlink.com 1.10,2013-10-17 04:26:00,
2013-10-17 00:41:00,57.2,53.0,29.80,SW,219,4.0,-999.0,87,-99.99,,,0.00,0,weatherlink.com 1.10,2013-10-17 04:41:00,
2013-10-17 00:56:00,57.2,53.0,29.81,SW,220,2.0,-999.0,87,-99.99,,,0.00,0,weatherlink.com 1.10,2013-10-17 04:56:00,
2013-10-17 01:11:00,57.2,53.0,29.81,SW,234,5.0,-999.0,87,-99.99,,,0.00,0,weatherlink.com 1.10,2013-10-17 05:11:00,
2013-10-17 01:26:00,57.3,54.0,29.81,WSW,240,0.0,-999.0,87,-99.99,,,0.00,0,weatherlink.com 1.10,2013-10-17 05:26:00,
2013-10-17 01:41:00,57.4,53.0,29.82,WSW,247,0.0,-999.0,86,-99.99,,,0.00,0,weatherlink.com 1.10,2013-10-17 05:41:00,
2013-10-17 01:56:00,57.6,53.0,29.83,WSW,245,7.0,-999.0,85,-99.99,,,0.00,0,weatherlink.com 1.10,2013-10-17 05:56:00,
2013-10-17 02:11:00,57.8,53.0,29.84,WSW,246,5.0,-999.0,83,-99.99,,,0.00,0,weatherlink.com 1.10,2013-10-17 06:11:00,
2013-10-17 02:26:00,57.5,52.0,29.84,West,277,6.0,-999.0,83,-99.99,,,0.00,0,weatherlink.com 1.10,2013-10-17 06:26:00,
2013-10-17 02:41:00,56.9,52.0,29.84,WSW,255,1.0,-999.0,83,-99.99,,,0.00,0,weatherlink.com 1.10,2013-10-17 06:41:00,
2013-10-17 02:56:00,56.4,51.0,29.84,West,263,2.0,-999.0,83,-99.99,,,0.00,0,weatherlink.com 1.10,2013-10-17 06:56:00,
2013-10-17 03:11:00,55.8,51.0,29.84,West,265,1.0,-999.0,84,-99.99,,,0.00,0,weatherlink.com 1.10,2013-10-17 07:11:00,
2013-10-17 03:26:00,55.1,50.0,29.84,WSW,250,7.0,-999.0,84,-99.99,,,0.00,0,weatherlink.com 1.10,2013-10-17 07:26:00,
2013-10-17 03:41:00,54.7,49.0,29.84,WSW,240,7.0,-999.0,82,-99.99,,,0.00,0,weatherlink.com 1.10,2013-10-17 07:41:00,
2013-10-17 03:56:00,54.4,49.0,29.84,WSW,248,0.0,-999.0,81,-99.99,,,0.00,0,weatherlink.com 1.10,2013-10-17 07:56:00,
2013-10-17 04:11:00,53.9,48.0,29.84,WSW,244,2.0,-999.0,81,-99.99,,,0.00,0,weatherlink.com 1.10,2013-10-17 08:11:00,
2013-10-17 04:26:00,53.5,48.0,29.84,WSW,244,0.0,-999.0,82,-99.99,,,0.00,0,weatherlink.com 1.10,2013-10-17 08:26:00,
2013-10-17 04:41:00,52.9,48.0,29.84,WSW,237,1.0,-999.0,82,-99.99,,,0.00,0,weatherlink.com 1.10,2013-10-17 08:41:00,
2013-10-17 04:56:00,52.4,47.0,29.84,WSW,252,0.0,-999.0,83,-99.99,,,0.00,0,weatherlink.com 1.10,2013-10-17 08:56:00,
2013-10-17 05:11:00,52.1,47.0,29.84,WSW,250,0.0,-999.0,84,-99.99,,,0.00,0,weatherlink.com 1.10,2013-10-17 09:11:00,
2013-10-17 05:26:00,51.9,48.0,29.84,WSW,238,1.0,-999.0,85,-99.99,,,0.00,0,weatherlink.com 1.10,2013-10-17 09:26:00,
2013-10-17 05:41:00,51.8,48.0,29.85,WSW,238,0.0,-999.0,85,-99.99,,,0.00,0,weatherlink.com 1.10,2013-10-17 09:41:00,
2013-10-17 05:56:00,51.7,48.0,29.85,WSW,250,2.0,-999.0,86,-99.99,,,0.00,0,weatherlink.com 1.10,2013-10-17 09:56:00,
2013-10-17 06:11:00,51.6,48.0,29.85,WSW,250,0.0,-999.0,87,-99.99,,,0.00,0,weatherlink.com 1.10,2013-10-17 10:11:00,
2013-10-17 06:26:00,51.3,48.0,29.85,WSW,250,0.0,-999.0,87,-99.99,,,0.00,0,weatherlink.com 1.10,2013-10-17 10:26:00,
2013-10-17 06:41:00,50.8,47.0,29.85,WSW,250,0.0,-999.0,88,-99.99,,,0.00,0,weatherlink.com 1.10,2013-10-17 10:41:00,
2013-10-17 06:56:00,50.3,47.0,29.85,WSW,250,0.0,-999.0,88,-99.99,,,0.00,0,weatherlink.com 1.10,2013-10-17 10:56:00,
2013-10-17 07:11:00,49.7,47.0,29.85,WSW,250,0.0,-999.0,89,-99.99,,,0.00,0,weatherlink.com 1.10,2013-10-17 11:11:00,
2013-10-17 07:26:00,49.1,46.0,29.85,WSW,250,0.0,-999.0,89,-99.99,,,0.00,5,weatherlink.com 1.10,2013-10-17 11:26:00,
2013-10-17 07:41:00,48.7,46.0,29.86,WSW,250,0.0,-999.0,90,-99.99,,,0.00,14,weatherlink.com 1.10,2013-10-17 11:41:00,
2013-10-17 07:57:00,48.4,46.0,29.86,WSW,250,0.0,-999.0,90,-99.99,,,0.00,42,weatherlink.com 1.10,2013-10-17 11:57:00,
2013-10-17 08:12:00,48.5,46.0,29.86,WSW,250,0.0,-999.0,92,-99.99,,,0.00,77,weatherlink.com 1.10,2013-10-17 12:12:00,
2013-10-17 08:27:00,49.6,48.0,29.86,WSW,250,0.0,-999.0,93,-99.99,,,0.00,116,weatherlink.com 1.10,2013-10-17 12:27:00,
2013-10-17 08:42:00,51.4,50.0,29.86,WSW,250,0.0,-999.0,93,-99.99,,,0.00,158,weatherlink.com 1.10,2013-10-17 12:42:00,
2013-10-17 08:57:00,52.5,50.0,29.86,WSW,247,0.0,-999.0,92,-99.99,,,0.00,200,weatherlink.com 1.10,2013-10-17 12:57:00,
2013-10-17 09:12:00,54.7,52.0,29.86,SW,229,1.0,-999.0,89,-99.99,,,0.00,237,weatherlink.com 1.10,2013-10-17 13:12:00,
2013-10-17 09:27:00,56.7,52.0,29.86,SSW,194,2.0,-999.0,85,-99.99,,,0.00,279,weatherlink.com 1.10,2013-10-17 13:27:00,
2013-10-17 09:42:00,58.2,52.0,29.87,SSE,164,1.0,-999.0,80,-99.99,,,0.00,320,weatherlink.com 1.10,2013-10-17 13:42:00,
2013-10-17 09:57:00,59.1,52.0,29.86,SW,220,8.0,-999.0,78,-99.99,,,0.00,295,weatherlink.com 1.10,2013-10-17 13:57:00,
2013-10-17 10:12:00,59.7,52.0,29.86,SSE,165,6.0,-999.0,77,-99.99,,,0.00,373,weatherlink.com 1.10,2013-10-17 14:12:00,
2013-10-17 10:28:00,60.7,52.0,29.86,SW,215,2.0,-999.0,74,-99.99,,,0.00,570,weatherlink.com 1.10,2013-10-17 14:28:00,
2013-10-17 10:42:00,61.6,52.0,29.86,West,275,3.0,-999.0,72,-99.99,,,0.00,519,weatherlink.com 1.10,2013-10-17 14:42:00,
2013-10-17 10:57:00,61.4,52.0,29.85,SSE,165,3.0,-999.0,71,-99.99,,,0.00,329,weatherlink.com 1.10,2013-10-17 14:57:00,
2013-10-17 11:12:00,62.5,52.0,29.86,SSW,195,8.0,-999.0,68,-99.99,,,0.00,578,weatherlink.com 1.10,2013-10-17 15:12:00,
2013-10-17 11:27:00,62.4,50.0,29.86,WSW,250,7.0,-999.0,65,-99.99,,,0.00,290,weatherlink.com 1.10,2013-10-17 15:27:00,
2013-10-17 11:42:00,62.5,50.0,29.85,West,278,4.0,-999.0,64,-99.99,,,0.00,338,weatherlink.com 1.10,2013-10-17 15:42:00,
2013-10-17 11:57:00,63.0,50.0,29.84,SE,144,0.0,-999.0,62,-99.99,,,0.00,584,weatherlink.com 1.10,2013-10-17 15:57:00,
2013-10-17 12:13:00,62.7,49.0,29.84,SE,136,2.0,-999.0,62,-99.99,,,0.00,213,weatherlink.com 1.10,2013-10-17 16:13:00,
2013-10-17 12:28:00,62.9,49.0,29.84,SW,215,1.0,-999.0,60,-99.99,,,0.00,309,weatherlink.com 1.10,2013-10-17 16:28:00,
2013-10-17 12:43:00,62.9,48.0,29.83,SSE,154,0.0,-999.0,59,-99.99,,,0.00,499,weatherlink.com 1.10,2013-10-17 16:43:00,
2013-10-17 12:58:00,63.3,49.0,29.82,SW,232,0.0,-999.0,59,-99.99,,,0.01,290,weatherlink.com 1.10,2013-10-17 16:58:00,
2013-10-17 13:13:00,63.9,49.0,29.82,West,275,4.0,-999.0,59,-99.99,,,0.01,313,weatherlink.com 1.10,2013-10-17 17:13:00,
2013-10-17 13:28:00,63.4,49.0,29.81,WSW,245,0.0,-999.0,60,-99.99,,,0.01,316,weatherlink.com 1.10,2013-10-17 17:28:00,
2013-10-17 13:43:00,63.6,48.0,29.81,West,263,0.0,-999.0,58,-99.99,,,0.01,255,weatherlink.com 1.10,2013-10-17 17:43:00,
2013-10-17 13:58:00,63.8,49.0,29.80,SSW,200,0.0,-999.0,59,-99.99,,,0.01,225,weatherlink.com 1.10,2013-10-17 17:58:00,
2013-10-17 14:13:00,63.6,49.0,29.80,SSE,161,2.0,-999.0,59,-99.99,,,0.01,274,weatherlink.com 1.10,2013-10-17 18:13:00,
2013-10-17 14:28:00,63.8,49.0,29.79,West,269,4.0,-999.0,58,-99.99,,,0.01,294,weatherlink.com 1.10,2013-10-17 18:28:00,
2013-10-17 14:43:00,63.8,48.0,29.79,WSW,253,2.0,-999.0,57,-99.99,,,0.01,232,weatherlink.com 1.10,2013-10-17 18:43:00,
2013-10-17 14:58:00,64.1,49.0,29.78,WSW,243,1.0,-999.0,59,-99.99,,,0.01,227,weatherlink.com 1.10,2013-10-17 18:58:00,
2013-10-17 15:13:00,64.5,49.0,29.77,SW,234,0.0,-999.0,58,-99.99,,,0.01,213,weatherlink.com 1.10,2013-10-17 19:13:00,
2013-10-17 15:28:00,64.8,49.0,29.77,SW,215,5.0,-999.0,58,-99.99,,,0.01,158,weatherlink.com 1.10,2013-10-17 19:28:00,
2013-10-17 15:43:00,65.6,50.0,29.76,SW,215,1.0,-999.0,57,-99.99,,,0.01,120,weatherlink.com 1.10,2013-10-17 19:43:00,
2013-10-17 15:58:00,65.6,50.0,29.76,SSW,192,0.0,-999.0,57,-99.99,,,0.01,244,weatherlink.com 1.10,2013-10-17 19:58:00,
2013-10-17 16:13:00,65.5,50.0,29.74,SSW,192,0.0,-999.0,57,-99.99,,,0.01,443,weatherlink.com 1.10,2013-10-17 20:13:00,
2013-10-17 16:28:00,65.0,50.0,29.73,East,92,2.0,-999.0,58,-99.99,,,0.01,162,weatherlink.com 1.10,2013-10-17 20:28:00,
2013-10-17 16:43:00,64.7,49.0,29.72,East,92,4.0,-999.0,57,-99.99,,,0.01,202,weatherlink.com 1.10,2013-10-17 20:43:00,
2013-10-17 16:58:00,63.8,49.0,29.72,East,92,3.0,-999.0,59,-99.99,,,0.01,91,weatherlink.com 1.10,2013-10-17 20:58:00,
2013-10-17 17:13:00,63.4,50.0,29.71,ENE,72,0.0,-999.0,61,-99.99,,,0.01,81,weatherlink.com 1.10,2013-10-17 21:13:00,
2013-10-17 17:28:00,62.7,49.0,29.70,ENE,68,3.0,-999.0,62,-99.99,,,0.01,30,weatherlink.com 1.10,2013-10-17 21:28:00,
2013-10-17 17:43:00,62.2,49.0,29.68,ENE,62,4.0,-999.0,63,-99.99,,,0.01,12,weatherlink.com 1.10,2013-10-17 21:43:00,
2013-10-17 17:58:00,61.6,49.0,29.67,NE,55,0.0,-999.0,64,-99.99,,,0.01,9,weatherlink.com 1.10,2013-10-17 21:58:00,
2013-10-17 18:28:00,60.7,49.0,29.64,NNE,13,5.0,-999.0,66,-99.99,,,0.01,0,weatherlink.com 1.10,2013-10-17 22:28:00,
2013-10-17 18:43:00,60.3,50.0,29.65,NE,46,0.0,-999.0,68,-99.99,,,0.01,0,weatherlink.com 1.10,2013-10-17 22:43:00,
2013-10-17 18:58:00,60.0,49.0,29.66,NE,46,0.0,-999.0,68,-99.99,,,0.01,0,weatherlink.com 1.10,2013-10-17 22:58:00,
2013-10-17 19:13:00,59.8,51.0,29.69,WNW,298,5.0,-999.0,72,-99.99,,,0.01,0,weatherlink.com 1.10,2013-10-17 23:13:00,
2013-10-17 19:28:00,58.7,53.0,29.69,NW,306,6.0,-999.0,80,-99.99,,,0.01,0,weatherlink.com 1.10,2013-10-17 23:28:00,
2013-10-17 19:43:00,57.5,53.0,29.71,WNW,296,2.0,-999.0,85,-99.99,,,0.01,0,weatherlink.com 1.10,2013-10-17 23:43:00,
2013-10-17 19:58:00,56.6,53.0,29.71,West,274,1.0,-999.0,87,-99.99,,,0.01,0,weatherlink.com 1.10,2013-10-17 23:58:00,
2013-10-17 20:13:00,55.8,53.0,29.70,WNW,299,7.0,-999.0,89,-99.99,,,0.01,0,weatherlink.com 1.10,2013-10-18 00:13:00,
2013-10-17 20:28:00,55.4,53.0,29.70,WNW,293,5.0,-999.0,90,-99.99,,,0.01,0,weatherlink.com 1.10,2013-10-18 00:28:00,
2013-10-17 20:43:00,55.1,53.0,29.71,WNW,302,1.0,-999.0,91,-99.99,,,0.02,0,weatherlink.com 1.10,2013-10-18 00:43:00,
2013-10-17 20:58:00,55.1,53.0,29.72,WNW,302,5.0,-999.0,92,-99.99,,,0.02,0,weatherlink.com 1.10,2013-10-18 00:58:00,
2013-10-17 21:13:00,54.8,53.0,29.71,NW,304,5.0,-999.0,92,-99.99,,,0.02,0,weatherlink.com 1.10,2013-10-18 01:13:00,
2013-10-17 21:28:00,54.4,53.0,29.68,NNE,27,2.0,-999.0,93,-99.99,,,0.02,0,weatherlink.com 1.10,2013-10-18 01:28:00,
2013-10-17 21:43:00,54.2,52.0,29.66,NE,37,2.0,-999.0,93,-99.99,,,0.02,0,weatherlink.com 1.10,2013-10-18 01:43:00,
2013-10-17 21:58:00,54.3,52.0,29.65,ESE,105,3.0,-999.0,93,-99.99,,,0.02,0,weatherlink.com 1.10,2013-10-18 01:58:00,
2013-10-17 22:13:00,54.3,53.0,29.64,East,81,5.0,-999.0,94,-99.99,,,0.02,0,weatherlink.com 1.10,2013-10-18 02:13:00,
2013-10-17 22:28:00,54.1,53.0,29.64,East,98,4.0,-999.0,94,-99.99,,,0.02,0,weatherlink.com 1.10,2013-10-18 02:28:00,
2013-10-17 22:43:00,53.6,52.0,29.65,East,87,0.0,-999.0,94,-99.99,,,0.02,0,weatherlink.com 1.10,2013-10-18 02:43:00,
2013-10-17 22:58:00,53.5,52.0,29.68,WSW,245,5.0,-999.0,94,-99.99,,,0.02,0,weatherlink.com 1.10,2013-10-18 02:58:00,
2013-10-17 23:13:00,53.4,52.0,29.68,WSW,246,1.0,-999.0,94,-99.99,,,0.02,0,weatherlink.com 1.10,2013-10-18 03:13:00,
2013-10-17 23:28:00,53.4,52.0,29.68,WSW,246,0.0,-999.0,94,-99.99,,,0.02,0,weatherlink.com 1.10,2013-10-18 03:28:00,
2013-10-17 23:43:00,53.5,52.0,29.68,WSW,246,1.0,-999.0,94,-99.99,,,0.02,0,weatherlink.com 1.10,2013-10-18 03:43:00,
2013-10-17 23:58:00,53.4,52.0,29.68,WSW,244,2.0,-999.0,94,-99.99,,,0.02,0,weatherlink.com 1.10,2013-10-18 03:58:00,